map of NNT home
Great Circle Mapper logo
NNT - Airport
Location
City:  Nan, Nan, Thailand
ICAO / IATA:VTCN / NNT

Details
Type:Airport (Aerodrome, Airfield)
Latitude:1848'28"N (18.807914)
Longitude:10047'00"E (100.783419)
Datum:WGS 1984
Elevation:685 ft (209 m)
Variation:0.84W (WMM2015 magnetic declination)
0.00 annual change
Runways:1
Longest:6562 × 148 ft (2000 × 45 m), paved

Time
Time Zone:UTC+7
Local Time:

Weather
METAR:VTCN 130400Z 00000KT 9999 FEW025 24/12 Q1015 A2998
TAF:VTCN 122300Z 1300/1324 VRB03KT 1500 BR FEW035
BECMG 1302/1304 6000

Related Locations
Nearby:
Farthest:SJA: 12081 mi / 19442 km
San Juan de Marcona [San Juan de Marcona Airport], ICA, PE

Find:

   beyond  
but within

Other Information
Maps:
NOTAMs:
Links:
Sources:

  
flag of Thailand   

Sectional Chart

Flight Planning
at skyvector.com

Satellite Image

Google Maps Satellite view

 

Copyright © 2004-2016 Karl L. Swartz. All rights reserved.
The Great Circle Mapper name and logo are trademarks of the Great Circle Mapper.
All other trademarks mentioned herein belong to their respective owners.
Please see credits for attibutions and further copyright information.

  Follow gcmap on Facebook Follow gcmap on Twitter Follow gcmap on Google+ GCmap on LinkedIn

hCard Microformat

Geo Microformat